Привокзальный

Россия / Московская область     55°59′31″N   35°56′28″E
темп.,
°C
ветер,
м/с
пор.,
м/с
влажн.,
%
обл.,
%
осадки,
мм/ч
давл.,
гПа
погр.,
м
20 апреля, вт
вт2000:00+5в5105998 0.0 1023685
03:00+3в4875100 0.1 1023720
06:00+2в4994100 0.0 1022431
09:00+4в597697 0.1 1021626
12:00+8в6958100 0.0 10191124
15:00+5в6987100 0.1 1019802
18:00+5в5984100 0.1 10171101
21:00+4всв3996100 0.3 1015831
21 апреля, ср
ср2100:00+3всв3897100 0.4 1012601
03:00+3св3797100 0.9 1008551
06:00+2ссв3898100 2.1 1005334
09:00+1ссз2499100 4.4 1004208
12:00+2з3697100 0.5 1004521
15:00+3зюз4790100 0.6 1006858
18:00+4зюз4891100 0.1 1008621
21:00+3ю3795100 0.1 1009247
22 апреля, чт
чт2200:00+4ююз3895100 0.2 1010232
03:00+3ююз3894100 0.4 1011211
06:00+2ю389599 0.0 1012220
09:00+7ююз477942 0.0 1013490
12:00+11ююз575917 0.0 10131506
15:00+11ю576555 0.4 10131235
18:00+11ю497417 0.1 1013910
21:00+7ююв4129091 0.1 1014336
23 апреля, пт
пт2300:00+7ю412945 0.0 1013358
03:00+6ююв4109635 0.0 1013235
06:00+6ююв5149296 0.0 1013379
09:00+11ю6137767 0.1 1013630
12:00+14ююз7126281 0.5 10121726
15:00+13ююз71272100 2.6 10121821
18:00+7ююз138891 2.9 1014332
21:00+7з1195100 5.0 1013140
24 апреля, сб
сб2400:00+7сз1198100 5.6 101182
03:00+5ссз3598100 7.9 1008288
06:00+2зсз51098100 5.5 1008431
09:00+2зсз37100100 11.0 1009295
12:00+4зюз2598100 1.0 1009506
15:00+6зюз3485100 1.4 1008761
18:00+6з2484100 0.6 1008434
21:00+4з3697100 1.3 1008552